| time (UTC) | temp F | wind direction | speed knots | gust knots | rain 1hr in | rain 24hr in | rain mn in | humidity % | barometer mb |
| 20260502152229 | 80 | 87 | 1.7 | 10.4 | 0.00 | 0.00 | 0.00 | 28 | 1012.3 |
| 20260502151728 | 79 | 80 | 1.7 | 10.4 | 0.00 | 0.00 | 0.00 | 28 | 1012.3 |
| 20260502151448 | 79 | 51 | 1.7 | 13.9 | 0.00 | 0.00 | 0.00 | 28 | 1012.3 |
| 20260502150728 | 79 | 57 | 1.7 | 13.9 | 0.00 | 0.00 | 0.00 | 28 | 1012.2 |
| 20260502150230 | 79 | 300 | 0.9 | 12.2 | 0.00 | 0.00 | 0.00 | 28 | 1012.2 |
| 20260502130230 | 70 | 343 | 0.0 | 0.0 | 0.00 | 0.00 | 0.00 | 27 | 1010.9 |
| 20260502123729 | 72 | 136 | 0.0 | 0.0 | 0.00 | 0.00 | 0.00 | 25 | 1010.4 |
| 20260502123451 | 72 | 136 | 0.0 | 0.0 | 0.00 | 0.00 | 0.00 | 25 | 1010.4 |
| 20260502122729 | 72 | 136 | 0.0 | 0.0 | 0.00 | 0.00 | 0.00 | 26 | 1010.3 |
| 20260502122452 | 72 | 136 | 0.0 | 0.0 | 0.00 | 0.00 | 0.00 | 26 | 1010.2 |
| 20260502121947 | 72 | 136 | 0.0 | 0.0 | 0.00 | 0.00 | 0.00 | 26 | 1010.2 |
| 20260502121225 | 72 | 136 | 0.0 | 0.0 | 0.00 | 0.00 | 0.00 | 26 | 1010.1 |
| 20260502120951 | 72 | 136 | 0.0 | 0.0 | 0.00 | 0.00 | 0.00 | 26 | 1010.1 |
| 20260502120223 | 72 | 136 | 0.0 | 0.0 | 0.00 | 0.00 | 0.00 | 26 | 1010.1 |
| 20260502115217 | 72 | 136 | 0.0 | 0.0 | 0.00 | 0.00 | 0.00 | 25 | 1010.0 |
| 20260502114716 | 73 | 136 | 0.0 | 0.0 | 0.00 | 0.00 | 0.00 | 25 | 1010.0 |
| 20260502114215 | 73 | 174 | 0.0 | 0.0 | 0.00 | 0.00 | 0.00 | 25 | 1010.0 |
| 20260502113936 | 74 | 178 | 0.0 | 0.0 | 0.00 | 0.00 | 0.00 | 24 | 1009.9 |
| 20260502113212 | 74 | 178 | 0.0 | 0.0 | 0.00 | 0.00 | 0.00 | 23 | 1009.9 |
| 20260502112709 | 74 | 178 | 0.0 | 0.0 | 0.00 | 0.00 | 0.00 | 23 | 1010.0 |
| 20260502112210 | 74 | 178 | 0.0 | 0.0 | 0.00 | 0.00 | 0.00 | 23 | 1009.9 |
| 20260502111709 | 75 | 178 | 0.0 | 0.9 | 0.00 | 0.00 | 0.00 | 23 | 1009.9 |
| 20260502111209 | 75 | 178 | 0.0 | 0.9 | 0.00 | 0.00 | 0.00 | 22 | 1009.8 |
| 20260502110709 | 77 | 178 | 0.0 | 0.0 | 0.00 | 0.00 | 0.00 | 21 | 1009.8 |
| 20260502110210 | 77 | 24 | 0.0 | 0.0 | 0.00 | 0.00 | 0.00 | 20 | 1009.7 |
| 20260502105708 | 77 | 24 | 0.0 | 0.0 | 0.00 | 0.00 | 0.00 | 20 | 1009.6 |
| 20260502105434 | 77 | 25 | 0.0 | 0.0 | 0.00 | 0.00 | 0.00 | 20 | 1009.6 |
| 20260502104702 | 78 | 5 | 0.0 | 0.0 | 0.00 | 0.00 | 0.00 | 20 | 1009.6 |
| 20260502104200 | 78 | 21 | 0.0 | 0.0 | 0.00 | 0.00 | 0.00 | 20 | 1009.5 |
| 20260502103702 | 78 | 30 | 0.0 | 0.0 | 0.00 | 0.00 | 0.00 | 20 | 1009.5 |
| 20260502103202 | 78 | 13 | 0.0 | 0.0 | 0.00 | 0.00 | 0.00 | 20 | 1009.5 |
| 20260502102920 | 78 | 32 | 0.0 | 0.0 | 0.00 | 0.00 | 0.00 | 20 | 1009.4 |
| 20260502102201 | 78 | 38 | 0.0 | 0.9 | 0.00 | 0.00 | 0.00 | 20 | 1009.4 |
| 20260502101922 | 78 | 59 | 0.0 | 0.9 | 0.00 | 0.00 | 0.00 | 20 | 1009.4 |
| 20260502101201 | 78 | 52 | 0.0 | 0.9 | 0.00 | 0.00 | 0.00 | 20 | 1009.4 |
| 20260502100702 | 78 | 5 | 0.0 | 0.9 | 0.00 | 0.00 | 0.00 | 20 | 1009.3 |
| 20260502100202 | 78 | 15 | 0.0 | 1.7 | 0.00 | 0.00 | 0.00 | 20 | 1009.4 |
| 20260502091151 | 79 | 37 | 0.0 | 7.0 | 0.00 | 0.00 | 0.00 | 20 | 1009.3 |
| 20260502090649 | 79 | 344 | 0.0 | 7.0 | 0.00 | 0.00 | 0.00 | 20 | 1009.3 |
| 20260502090149 | 79 | 344 | 0.0 | 7.8 | 0.00 | 0.00 | 0.00 | 20 | 1009.3 |
| 20260502071117 | 78 | 97 | 0.0 | 0.0 | 0.00 | 0.00 | 0.00 | 20 | 1008.7 |
| 20260502070618 | 77 | 59 | 0.0 | 0.0 | 0.00 | 0.00 | 0.00 | 20 | 1008.7 |
| 20260502070117 | 77 | 270 | 0.0 | 0.0 | 0.00 | 0.00 | 0.00 | 21 | 1008.7 |
| 20260502065613 | 78 | 270 | 0.0 | 0.0 | 0.00 | 0.00 | 0.00 | 21 | 1008.8 |
| 20260502065114 | 78 | 270 | 0.0 | 0.0 | 0.00 | 0.00 | 0.00 | 20 | 1008.7 |
| 20260502064613 | 80 | 270 | 0.0 | 0.0 | 0.00 | 0.00 | 0.00 | 20 | 1008.7 |
| 20260502064112 | 80 | 136 | 0.0 | 0.0 | 0.00 | 0.00 | 0.00 | 18 | 1008.6 |
| 20260502063611 | 81 | 150 | 0.0 | 1.7 | 0.00 | 0.00 | 0.00 | 18 | 1008.6 |
| 20260502063109 | 81 | 150 | 0.0 | 1.7 | 0.00 | 0.00 | 0.00 | 17 | 1008.6 |
| 20260502062609 | 81 | 141 | 0.0 | 4.3 | 0.00 | 0.00 | 0.00 | 17 | 1008.5 |
| 20260502062105 | 81 | 119 | 0.0 | 4.3 | 0.00 | 0.00 | 0.00 | 17 | 1008.6 |
| 20260502062047 | 81 | 142 | 0.0 | 0.0 | 0.00 | 0.00 | 0.00 | 17 | 1008.5 |
| 20260502061105 | 82 | 140 | 0.0 | 0.0 | 0.00 | 0.00 | 0.00 | 17 | 1008.5 |
| 20260502060826 | 82 | 140 | 0.0 | 0.0 | 0.00 | 0.00 | 0.00 | 17 | 1008.5 |
| 20260502060106 | 82 | 140 | 0.0 | 0.0 | 0.00 | 0.00 | 0.00 | 16 | 1008.4 |
| 20260502055829 | 83 | 140 | 0.0 | 0.0 | 0.00 | 0.00 | 0.00 | 16 | 1008.3 |
| 20260502055106 | 83 | 139 | 0.0 | 0.0 | 0.00 | 0.00 | 0.00 | 16 | 1008.3 |
| 20260502054605 | 83 | 142 | 0.0 | 0.0 | 0.00 | 0.00 | 0.00 | 15 | 1008.3 |
| 20260502054106 | 83 | 142 | 0.0 | 0.0 | 0.00 | 0.00 | 0.00 | 15 | 1008.3 |
| 20260502053834 | 83 | 142 | 0.0 | 0.9 | 0.00 | 0.00 | 0.00 | 15 | 1008.2 |
| 20260502053105 | 83 | 134 | 0.0 | 0.9 | 0.00 | 0.00 | 0.00 | 15 | 1008.2 |
| 20260502052825 | 83 | 129 | 0.0 | 0.0 | 0.00 | 0.00 | 0.00 | 16 | 1008.1 |
| 20260502052550 | 83 | 121 | 0.0 | 0.0 | 0.00 | 0.00 | 0.00 | 16 | 1008.1 |
| 20260502051606 | 83 | 120 | 0.0 | 0.0 | 0.00 | 0.00 | 0.00 | 16 | 1008.1 |
| 20260502051105 | 83 | 132 | 0.0 | 0.9 | 0.00 | 0.00 | 0.00 | 16 | 1008.1 |
| 20260502050603 | 83 | 131 | 0.0 | 0.9 | 0.00 | 0.00 | 0.00 | 16 | 1008.1 |
| 20260502045604 | 83 | 132 | 0.0 | 5.2 | 0.00 | 0.00 | 0.00 | 17 | 1008.0 |
| 20260502045102 | 83 | 113 | 0.0 | 5.2 | 0.00 | 0.00 | 0.00 | 17 | 1008.1 |
| 20260502044602 | 83 | 126 | 0.0 | 0.9 | 0.00 | 0.00 | 0.00 | 17 | 1008.0 |
| 20260502044102 | 83 | 120 | 0.0 | 0.0 | 0.00 | 0.00 | 0.00 | 17 | 1008.1 |
| 20260502043600 | 83 | 130 | 0.0 | 0.9 | 0.00 | 0.00 | 0.00 | 17 | 1008.1 |
| 20260502043053 | 83 | 129 | 0.0 | 0.9 | 0.00 | 0.00 | 0.00 | 17 | 1008.1 |
| 20260502042548 | 83 | 132 | 0.0 | 0.0 | 0.00 | 0.00 | 0.00 | 17 | 1008.1 |
| 20260502042041 | 83 | 132 | 0.0 | 0.0 | 0.00 | 0.00 | 0.00 | 18 | 1008.0 |
| 20260502041804 | 83 | 131 | 0.0 | 0.0 | 0.00 | 0.00 | 0.00 | 18 | 1007.8 |
| 20260502041039 | 83 | 132 | 0.0 | 0.0 | 0.00 | 0.00 | 0.00 | 18 | 1007.7 |
| 20260502040801 | 83 | 130 | 0.0 | 0.0 | 0.00 | 0.00 | 0.00 | 19 | 1007.7 |
| 20260502040035 | 83 | 159 | 0.0 | 0.0 | 0.00 | 0.00 | 0.00 | 18 | 1007.6 |
| 20260502035536 | 83 | 159 | 0.0 | 0.0 | 0.00 | 0.00 | 0.00 | 19 | 1007.6 |
| 20260502035034 | 83 | 176 | 0.0 | 0.0 | 0.00 | 0.00 | 0.00 | 19 | 1007.5 |
| 20260502034533 | 83 | 176 | 0.0 | 0.0 | 0.00 | 0.00 | 0.00 | 19 | 1007.5 |
| 20260502034030 | 83 | 181 | 0.0 | 0.0 | 0.00 | 0.00 | 0.00 | 19 | 1007.5 |
| 20260502033529 | 83 | 182 | 0.0 | 0.0 | 0.00 | 0.00 | 0.00 | 19 | 1007.4 |
| 20260502033249 | 83 | 182 | 0.0 | 0.0 | 0.00 | 0.00 | 0.00 | 19 | 1007.3 |
| 20260502032529 | 83 | 182 | 0.0 | 0.0 | 0.00 | 0.00 | 0.00 | 19 | 1007.2 |
| 20260502032031 | 83 | 184 | 0.0 | 0.0 | 0.00 | 0.00 | 0.00 | 19 | 1007.2 |
| 20260502031529 | 83 | 184 | 0.0 | 0.0 | 0.00 | 0.00 | 0.00 | 19 | 1007.1 |
| 20260502031029 | 83 | 184 | 0.0 | 0.0 | 0.00 | 0.00 | 0.00 | 19 | 1007.1 |
| 20260502030530 | 83 | 184 | 0.0 | 0.0 | 0.00 | 0.00 | 0.00 | 19 | 1007.0 |
| 20260502030028 | 83 | 184 | 0.0 | 0.0 | 0.00 | 0.00 | 0.00 | 20 | 1007.0 |
| 20260502025755 | 83 | 185 | 0.0 | 0.0 | 0.00 | 0.00 | 0.00 | 20 | 1007.0 |
| 20260502025029 | 83 | 185 | 0.0 | 0.0 | 0.00 | 0.00 | 0.00 | 20 | 1006.9 |
| 20260502024758 | 84 | 185 | 0.0 | 0.0 | 0.00 | 0.00 | 0.00 | 20 | 1006.9 |
| 20260502024251 | 84 | 185 | 0.0 | 0.0 | 0.00 | 0.00 | 0.00 | 19 | 1006.8 |
| 20260502023516 | 84 | 185 | 0.0 | 0.0 | 0.00 | 0.00 | 0.00 | 19 | 1006.7 |
| 20260502023011 | 84 | 184 | 0.0 | 0.0 | 0.00 | 0.00 | 0.00 | 19 | 1006.6 |
| 20260502022511 | 85 | 172 | 0.0 | 1.7 | 0.00 | 0.00 | 0.00 | 19 | 1006.6 |
| 20260502022232 | 85 | 199 | 0.0 | 1.7 | 0.00 | 0.00 | 0.00 | 19 | 1006.5 |
| 20260502021508 | 85 | 203 | 0.0 | 1.7 | 0.00 | 0.00 | 0.00 | 19 | 1006.5 |
| 20260502021005 | 85 | 207 | 0.0 | 1.7 | 0.00 | 0.00 | 0.00 | 19 | 1006.4 |
| 20260502020724 | 86 | 207 | 0.0 | 5.2 | 0.00 | 0.00 | 0.00 | 18 | 1006.4 |
| 20260502020001 | 86 | 212 | 0.0 | 5.2 | 0.00 | 0.00 | 0.00 | 18 | 1006.4 |
| 20260502015501 | 86 | 206 | 0.0 | 0.0 | 0.00 | 0.00 | 0.00 | 18 | 1006.4 |
| 20260502015000 | 86 | 205 | 0.0 | 0.0 | 0.00 | 0.00 | 0.00 | 18 | 1006.4 |
| 20260502014501 | 87 | 213 | 0.0 | 0.0 | 0.00 | 0.00 | 0.00 | 18 | 1006.3 |
| 20260502014449 | 87 | 207 | 0.0 | 4.3 | 0.00 | 0.00 | 0.00 | 18 | 1006.3 |
| 20260502013501 | 87 | 203 | 0.0 | 4.3 | 0.00 | 0.00 | 0.00 | 18 | 1006.3 |
| 20260502013001 | 87 | 221 | 0.0 | 0.9 | 0.00 | 0.00 | 0.00 | 18 | 1006.3 |
| 20260502012501 | 87 | 213 | 0.0 | 5.2 | 0.00 | 0.00 | 0.00 | 17 | 1006.3 |
| 20260502012003 | 87 | 191 | 0.0 | 5.2 | 0.00 | 0.00 | 0.00 | 18 | 1006.3 |
| 20260502011502 | 88 | 224 | 0.0 | 0.0 | 0.00 | 0.00 | 0.00 | 18 | 1006.4 |
| 20260502011000 | 88 | 234 | 0.0 | 0.9 | 0.00 | 0.00 | 0.00 | 18 | 1006.4 |
| 20260502010719 | 88 | 230 | 0.0 | 0.9 | 0.00 | 0.00 | 0.00 | 18 | 1006.5 |
| 20260502010001 | 88 | 217 | 0.0 | 0.9 | 0.00 | 0.00 | 0.00 | 18 | 1006.4 |
| 20260502005938 | 88 | 177 | 0.0 | 0.9 | 0.00 | 0.00 | 0.00 | 18 | 1006.5 |
| 20260502004953 | 88 | 217 | 0.0 | 0.9 | 0.00 | 0.00 | 0.00 | 18 | 1006.5 |
| 20260502004455 | 88 | 232 | 0.0 | 0.0 | 0.00 | 0.00 | 0.00 | 17 | 1006.5 |
| 20260502003951 | 88 | 250 | 0.0 | 0.0 | 0.00 | 0.00 | 0.00 | 17 | 1006.5 |
| 20260502003451 | 88 | 234 | 0.0 | 0.9 | 0.00 | 0.00 | 0.00 | 17 | 1006.4 |
| 20260502002952 | 88 | 221 | 0.0 | 0.9 | 0.00 | 0.00 | 0.00 | 18 | 1006.5 |
| 20260502002449 | 88 | 247 | 0.0 | 1.7 | 0.00 | 0.00 | 0.00 | 18 | 1006.5 |
| 20260502001947 | 88 | 246 | 0.0 | 1.7 | 0.00 | 0.00 | 0.00 | 18 | 1006.5 |
| 20260502001445 | 88 | 265 | 0.0 | 2.6 | 0.00 | 0.00 | 0.00 | 18 | 1006.5 |
| 20260502000943 | 89 | 200 | 0.0 | 2.6 | 0.00 | 0.00 | 0.00 | 18 | 1006.5 |
| 20260502000446 | 89 | 250 | 0.0 | 0.9 | 0.00 | 0.00 | 0.00 | 18 | 1006.6 |
| 20260501235943 | 89 | 273 | 0.0 | 8.7 | 0.00 | 0.00 | 0.00 | 18 | 1006.6 |
| 20260501235443 | 89 | 267 | 0.0 | 8.7 | 0.00 | 0.00 | 0.00 | 18 | 1006.6 |
| 20260501234944 | 89 | 250 | 0.0 | 0.0 | 0.00 | 0.00 | 0.00 | 18 | 1006.7 |
| 20260501234440 | 89 | 234 | 0.0 | 0.9 | 0.00 | 0.00 | 0.00 | 17 | 1006.7 |
| 20260501234433 | 89 | 200 | 0.0 | 2.6 | 0.00 | 0.00 | 0.00 | 17 | 1006.7 |
| 20260501233440 | 89 | 234 | 0.0 | 2.6 | 0.00 | 0.00 | 0.00 | 16 | 1006.7 |
| 20260501232941 | 89 | 235 | 0.0 | 0.9 | 0.00 | 0.00 | 0.00 | 17 | 1006.7 |
| 20260501232924 | 89 | 199 | 0.0 | 0.0 | 0.00 | 0.00 | 0.00 | 17 | 1006.7 |
| 20260501231941 | 89 | 243 | 0.0 | 1.7 | 0.00 | 0.00 | 0.00 | 17 | 1006.7 |
| 20260501231434 | 88 | 225 | 0.0 | 1.7 | 0.00 | 0.00 | 0.00 | 17 | 1006.8 |
| 20260501230935 | 88 | 246 | 0.0 | 3.5 | 0.00 | 0.00 | 0.00 | 17 | 1006.8 |
| 20260501230433 | 88 | 227 | 0.0 | 4.3 | 0.00 | 0.00 | 0.00 | 17 | 1006.8 |
| 20260501230158 | 88 | 198 | 0.0 | 4.3 | 0.00 | 0.00 | 0.00 | 18 | 1006.9 |
| 20260501225922 | 88 | 244 | 0.9 | 6.1 | 0.00 | 0.00 | 0.00 | 18 | 1006.9 |
| 20260501224932 | 88 | 238 | 0.9 | 6.1 | 0.00 | 0.00 | 0.00 | 19 | 1007.0 |
| 20260501224433 | 88 | 286 | 0.0 | 4.3 | 0.00 | 0.00 | 0.00 | 19 | 1006.9 |
| 20260501223933 | 88 | 263 | 0.0 | 3.5 | 0.00 | 0.00 | 0.00 | 19 | 1007.0 |
| 20260501223433 | 88 | 213 | 0.0 | 3.5 | 0.00 | 0.00 | 0.00 | 19 | 1007.1 |
| 20260501223155 | 88 | 224 | 0.9 | 7.0 | 0.00 | 0.00 | 0.00 | 19 | 1007.2 |
| 20260501222433 | 88 | 215 | 0.9 | 7.0 | 0.00 | 0.00 | 0.00 | 19 | 1007.3 |
| 20260501221932 | 88 | 216 | 0.9 | 8.7 | 0.00 | 0.00 | 0.00 | 20 | 1007.3 |
| 20260501221433 | 87 | 220 | 0.9 | 8.7 | 0.00 | 0.00 | 0.00 | 20 | 1007.4 |
| 20260501220932 | 88 | 221 | 0.0 | 5.2 | 0.00 | 0.00 | 0.00 | 20 | 1007.4 |
| 20260501220651 | 87 | 258 | 0.0 | 4.3 | 0.00 | 0.00 | 0.00 | 20 | 1007.5 |
| 20260501215933 | 88 | 250 | 0.0 | 4.3 | 0.00 | 0.00 | 0.00 | 20 | 1007.6 |
| 20260501215432 | 88 | 173 | 0.0 | 0.9 | 0.00 | 0.00 | 0.00 | 19 | 1007.6 |
| 20260501215153 | 88 | 199 | 0.0 | 0.9 | 0.00 | 0.00 | 0.00 | 20 | 1007.7 |
| 20260501214432 | 88 | 160 | 0.0 | 2.6 | 0.00 | 0.00 | 0.00 | 20 | 1007.8 |
| 20260501213933 | 87 | 221 | 0.0 | 3.5 | 0.00 | 0.00 | 0.00 | 20 | 1008.0 |
| 20260501213433 | 87 | 209 | 0.0 | 3.5 | 0.00 | 0.00 | 0.00 | 21 | 1008.1 |
| 20260501212933 | 87 | 220 | 0.0 | 2.6 | 0.00 | 0.00 | 0.00 | 21 | 1008.1 |
| 20260501212432 | 87 | 338 | 0.0 | 2.6 | 0.00 | 0.00 | 0.00 | 20 | 1008.2 |
| 20260501211933 | 87 | 221 | 0.0 | 2.6 | 0.00 | 0.00 | 0.00 | 21 | 1008.3 |
| 20260501211430 | 87 | 234 | 0.0 | 4.3 | 0.00 | 0.00 | 0.00 | 21 | 1008.4 |
| 20260501210929 | 87 | 207 | 0.0 | 4.3 | 0.00 | 0.00 | 0.00 | 20 | 1008.4 |
| 20260501210428 | 87 | 226 | 0.0 | 2.6 | 0.00 | 0.00 | 0.00 | 20 | 1008.4 |
| 20260501205929 | 87 | 263 | 0.0 | 4.3 | 0.00 | 0.00 | 0.00 | 20 | 1008.5 |
| 20260501205653 | 86 | 233 | 0.0 | 4.3 | 0.00 | 0.00 | 0.00 | 21 | 1008.6 |
| 20260501204929 | 86 | 221 | 0.0 | 0.0 | 0.00 | 0.00 | 0.00 | 21 | 1008.6 |
| 20260501204428 | 85 | 265 | 0.0 | 1.7 | 0.00 | 0.00 | 0.00 | 22 | 1008.6 |
| 20260501203930 | 86 | 261 | 0.0 | 1.7 | 0.00 | 0.00 | 0.00 | 22 | 1008.7 |
| 20260501203424 | 85 | 220 | 0.0 | 1.7 | 0.00 | 0.00 | 0.00 | 22 | 1008.8 |
| 20260501202918 | 85 | 32 | 0.0 | 0.0 | 0.00 | 0.00 | 0.00 | 23 | 1008.8 |
| 20260501202413 | 85 | 281 | 0.0 | 0.9 | 0.00 | 0.00 | 0.00 | 22 | 1008.8 |
| 20260501202129 | 85 | 225 | 0.0 | 0.9 | 0.00 | 0.00 | 0.00 | 23 | 1008.9 |
| 20260501201402 | 85 | 277 | 0.0 | 0.0 | 0.00 | 0.00 | 0.00 | 23 | 1008.9 |
| 20260501200901 | 85 | 331 | 0.0 | 0.0 | 0.00 | 0.00 | 0.00 | 22 | 1009.0 |
| 20260501200402 | 85 | 251 | 0.0 | 3.5 | 0.00 | 0.00 | 0.00 | 23 | 1009.0 |
| 20260501195902 | 85 | 217 | 0.0 | 3.5 | 0.00 | 0.00 | 0.00 | 23 | 1009.0 |
| 20260501195401 | 84 | 254 | 0.0 | 0.0 | 0.00 | 0.00 | 0.00 | 24 | 1009.1 |
| 20260501195120 | 84 | 275 | 0.0 | 0.9 | 0.00 | 0.00 | 0.00 | 24 | 1009.1 |
| 20260501194402 | 84 | 247 | 0.0 | 1.7 | 0.00 | 0.00 | 0.00 | 24 | 1009.2 |
| 20260501193901 | 84 | 270 | 0.0 | 1.7 | 0.00 | 0.00 | 0.00 | 24 | 1009.2 |
| 20260501193847 | 84 | 242 | 0.0 | 1.7 | 0.00 | 0.00 | 0.00 | 24 | 1009.3 |
| 20260501193125 | 84 | 143 | 0.0 | 5.2 | 0.00 | 0.00 | 0.00 | 25 | 1009.4 |
| 20260501192402 | 84 | 216 | 0.0 | 5.2 | 0.00 | 0.00 | 0.00 | 25 | 1009.5 |
| 20260501191902 | 83 | 235 | 0.0 | 7.0 | 0.00 | 0.00 | 0.00 | 25 | 1009.5 |
| 20260501191401 | 83 | 229 | 0.0 | 7.0 | 0.00 | 0.00 | 0.00 | 25 | 1009.5 |
| 20260501190901 | 83 | 188 | 0.0 | 5.2 | 0.00 | 0.00 | 0.00 | 25 | 1009.7 |
| 20260501190401 | 83 | 154 | 0.0 | 5.2 | 0.00 | 0.00 | 0.00 | 25 | 1009.7 |
| 20260501185901 | 83 | 200 | 0.0 | 0.9 | 0.00 | 0.00 | 0.00 | 24 | 1009.8 |
| 20260501185402 | 83 | 205 | 0.0 | 0.9 | 0.00 | 0.00 | 0.00 | 26 | 1009.8 |
| 20260501184900 | 83 | 92 | 0.0 | 1.7 | 0.00 | 0.00 | 0.00 | 25 | 1009.9 |
| 20260501184616 | 83 | 207 | 0.0 | 7.0 | 0.00 | 0.00 | 0.00 | 26 | 1009.9 |
| 20260501183847 | 83 | 219 | 0.0 | 7.0 | 0.00 | 0.00 | 0.00 | 26 | 1010.0 |
| 20260501183341 | 82 | 209 | 0.9 | 12.2 | 0.00 | 0.00 | 0.00 | 27 | 1010.1 |
| 20260501182836 | 82 | 231 | 0.0 | 12.2 | 0.00 | 0.00 | 0.00 | 26 | 1010.2 |
| 20260501182330 | 82 | 218 | 0.0 | 0.9 | 0.00 | 0.00 | 0.00 | 26 | 1010.3 |
| 20260501182048 | 82 | 286 | 0.0 | 0.9 | 0.00 | 0.00 | 0.00 | 26 | 1010.4 |
| 20260501181330 | 82 | 181 | 0.0 | 3.5 | 0.00 | 0.00 | 0.00 | 27 | 1010.6 |
| 20260501180830 | 82 | 196 | 0.0 | 3.5 | 0.00 | 0.00 | 0.00 | 27 | 1010.7 |
| 20260501180330 | 81 | 172 | 0.0 | 0.0 | 0.00 | 0.00 | 0.00 | 27 | 1010.7 |
| 20260501175831 | 80 | 96 | 0.0 | 0.0 | 0.00 | 0.00 | 0.00 | 28 | 1010.8 |
| 20260501175329 | 80 | 319 | 0.0 | 0.0 | 0.00 | 0.00 | 0.00 | 27 | 1010.8 |
| 20260501174830 | 81 | 285 | 0.0 | 0.0 | 0.00 | 0.00 | 0.00 | 27 | 1010.8 |
| 20260501174329 | 80 | 275 | 0.0 | 0.0 | 0.00 | 0.00 | 0.00 | 29 | 1010.8 |
| 20260501173831 | 79 | 85 | 0.0 | 0.0 | 0.00 | 0.00 | 0.00 | 29 | 1010.9 |
| 20260501173329 | 79 | 84 | 0.0 | 0.0 | 0.00 | 0.00 | 0.00 | 28 | 1010.9 |
| 20260501172829 | 80 | 167 | 0.0 | 0.0 | 0.00 | 0.00 | 0.00 | 28 | 1010.9 |
| 20260501172329 | 79 | 226 | 0.0 | 0.0 | 0.00 | 0.00 | 0.00 | 29 | 1010.9 |
| 20260501171830 | 79 | 236 | 0.0 | 0.0 | 0.00 | 0.00 | 0.00 | 29 | 1010.9 |
| 20260501171330 | 79 | 211 | 0.0 | 0.0 | 0.00 | 0.00 | 0.00 | 29 | 1011.0 |
| 20260501170829 | 79 | 216 | 0.0 | 0.0 | 0.00 | 0.00 | 0.00 | 30 | 1011.0 |
| 20260501170329 | 79 | 214 | 0.0 | 0.9 | 0.00 | 0.00 | 0.00 | 30 | 1011.0 |
| 20260501165829 | 79 | 217 | 0.0 | 0.9 | 0.00 | 0.00 | 0.00 | 30 | 1011.0 |
| 20260501165323 | 78 | 258 | 0.0 | 0.9 | 0.00 | 0.00 | 0.00 | 30 | 1011.0 |
| 20260501164817 | 78 | 249 | 0.0 | 0.0 | 0.00 | 0.00 | 0.00 | 31 | 1011.0 |
| 20260501164318 | 78 | 292 | 0.0 | 0.0 | 0.00 | 0.00 | 0.00 | 31 | 1011.0 |
| 20260501163817 | 78 | 288 | 0.0 | 0.0 | 0.00 | 0.00 | 0.00 | 31 | 1011.0 |
| 20260501163318 | 77 | 296 | 0.0 | 0.0 | 0.00 | 0.00 | 0.00 | 32 | 1011.0 |
| 20260501162818 | 77 | 308 | 0.0 | 0.0 | 0.00 | 0.00 | 0.00 | 33 | 1011.0 |
| 20260501162319 | 77 | 266 | 0.0 | 0.0 | 0.00 | 0.00 | 0.00 | 33 | 1011.0 |
| 20260501161816 | 76 | 223 | 0.0 | 0.0 | 0.00 | 0.00 | 0.00 | 33 | 1011.0 |
| 20260501161316 | 76 | 224 | 0.0 | 0.0 | 0.00 | 0.00 | 0.00 | 33 | 1011.0 |
| 20260501160816 | 76 | 210 | 0.0 | 0.0 | 0.00 | 0.00 | 0.00 | 34 | 1010.9 |
| 20260501160314 | 76 | 231 | 0.0 | 2.6 | 0.00 | 0.00 | 0.00 | 34 | 1010.9 |
| 20260501155813 | 76 | 198 | 0.0 | 2.6 | 0.00 | 0.00 | 0.00 | 35 | 1010.9 |
| 20260501155536 | 76 | 247 | 0.0 | 0.0 | 0.00 | 0.00 | 0.00 | 35 | 1010.8 |
| 20260501154811 | 75 | 161 | 0.0 | 0.0 | 0.00 | 0.00 | 0.00 | 35 | 1010.8 |
| 20260501154310 | 75 | 161 | 0.0 | 0.0 | 0.00 | 0.00 | 0.00 | 35 | 1010.8 |
| 20260501154033 | 75 | 190 | 0.0 | 0.0 | 0.00 | 0.00 | 0.00 | 35 | 1010.8 |
| 20260501153308 | 75 | 190 | 0.0 | 0.0 | 0.00 | 0.00 | 0.00 | 35 | 1010.7 |
| 20260501152807 | 74 | 190 | 0.0 | 0.9 | 0.00 | 0.00 | 0.00 | 36 | 1010.7 |